Home   Weather   Kapfenberg   Past weeks

Flag for Austria Past Weather in Kapfenberg, Styria, Austria — Yesterday and Last 2 Weeks

Now
46 °F

Broken clouds.


Feels Like: 46 °F
Forecast: 31 / 48 °F
Wind: 1 mph from North

Location: Zeltweg

Current Time: Feb 26, 2017 at 3:48:56 pm

Latest Report: Feb 26, 2017 at 2:50 pm


Visibility: 22 mi

Pressure: 30.01 "Hg (28.23 "Hg at 504m altitude)

Humidity: 40%

Dew Point: 23 °F

Location of KapfenbergLocation

Past Weather in Kapfenberg — Graph

°F

Kapfenberg Temperature Yesterday

Maximum temperature yesterday: 46 °F (at 3:50 pm)
Minimum temperature yesterday: 25 °F (at 5:50 am)
Average temperature yesterday: 36 °F

High & Low Weather Summary for the Past Weeks

 TemperatureHumidityPressure
High59 °F (Feb 22, 2:20 pm)100% (Feb 11, 5:50 pm)30.60 "Hg (Feb 11, 5:50 pm)
Low23 °F (Feb 14, 5:50 am)25% (Feb 25, 3:50 pm)29.59 "Hg (Feb 24, 3:50 am)
Average37 °F73%30.18 "Hg
* Reported Feb 11 1:20 pm — Feb 26 1:50 pm, Kapfenberg, Weather by CustomWeather, © 2017

Note: Actual official high and low records may vary slightly from our data, if they occured in-between our weather recording intervals... More about our weather records

Advertising

Kapfenberg Weather History for the Previous 24 Hours

Scroll right to see more
 ConditionsComfort  
Time TempWeatherWind HumidityBarometerVisibility
1:50 pm
Sun, Feb 26
45 °FBroken clouds.1 mph46%30.04 "Hg22 mi
12:50 pm45 °FPartly sunny.1 mph42%30.04 "Hg22 mi
11:50 am41 °FPartly sunny.2 mph49%30.07 "Hg22 mi
10:50 am39 °FPartly sunny.2 mph52%30.07 "Hg22 mi
9:50 am34 °FBroken clouds.2 mph65%30.07 "Hg22 mi
8:50 am32 °FPartly sunny.5 mph64%30.09 "Hg25 mi
7:50 am27 °FScattered clouds.2 mph80%30.09 "Hg19 mi
6:50 am23 °FScattered clouds.1 mph86%30.09 "Hg19 mi
5:50 am23 °FPassing clouds.1 mph86%30.09 "Hg12 mi
4:50 am25 °FPassing clouds.2 mph80%30.12 "Hg12 mi
9:50 pm
Sat, Feb 25
30 °FPassing clouds.1 mph69%30.21 "Hg12 mi
8:50 pm32 °FPassing clouds.3 mph60%30.21 "Hg12 mi
7:50 pm32 °FPassing clouds.7 mph64%30.18 "Hg12 mi
6:50 pm36 °FPassing clouds.3 mph56%30.18 "Hg12 mi
5:50 pm37 °FPassing clouds.3 mph56%30.15 "Hg19 mi
4:50 pm45 °FScattered clouds.6 mph27%30.15 "Hg19 mi
3:50 pm46 °FScattered clouds.6 mph25%30.15 "Hg31 mi
Weather by CustomWeather, © 2017

See weather overviewHow to use our weather pages

LIVE ANNULAR SOLAR ECLIPSE – Watch the eclipse as it happens